[[{"header":{"parameterUnit":"m.s-1","parameterCategory":1,"la1":30.2991,"la2":30.254,"lo1":-89.0895,"lo2":-89.0444,"dy":0.0017,"dx":0.0017,"nx":28,"ny":28,"refTime":"2025-08-21T21:00:00:Z","depth":0,"parameterNumber":2,"parameterNumberName":"U-component_of_WINDS"},"data":[0,0,0,0,0,0,0,0,0,0,0,0,0,0,0,0,0,0,0,0,0,0,0,0,0,0,0,0,0,0,0,0,0,0,0,0,0,0,0,0,0,0,0,0,0,0,0,0,0,0,0,0,0,0,0,0,0,0,-0.3697,-0.3696,0,-0.363,-0.3629,-0.3628,-0.3569,-0.3569,-0.3568,-0.3567,-0.35,-0.3498,-0.3497,0,0,0,0,0,0,0,0,0,0,0,0,0,-0.3776,-0.3774,-0.3697,-0.3696,-0.3695,-0.363,-0.3629,-0.3628,-0.3569,-0.3568,-0.3568,-0.3567,-0.35,-0.3499,-0.3497,0,0,0,0,0,0,0,0,0,0,0,0,0,-0.3728,-0.3774,-0.3697,-0.3658,-0.3654,-0.363,-0.3629,-0.3628,-0.3569,-0.3568,-0.3567,-0.3566,-0.35,-0.3499,-0.3497,-0.3507,0,0,-0.3492,-0.3491,0,0,0,0,0,0,0,0,-0.3731,-0.3726,-0.3665,-0.3661,-0.3656,-0.3607,-0.3632,-0.3587,-0.357,-0.3602,-0.3567,-0.3566,-0.3536,-0.3531,-0.3521,-0.3504,-0.3501,-0.3492,-0.3491,-0.349,-0.3489,0,0,0,0,0,0,0,-0.3734,-0.3728,-0.367,-0.3664,-0.3659,-0.3644,-0.3637,-0.3623,-0.3576,-0.3599,-0.3594,-0.3587,-0.3534,-0.3523,-0.3519,-0.35,-0.3492,-0.349,-0.3489,-0.3488,-0.3489,-0.349,0,0,0,0,0,0,-0.3744,-0.3731,-0.3673,-0.3668,-0.3692,-0.3644,-0.3635,-0.3624,-0.3575,-0.3567,-0.3588,-0.3585,-0.3526,-0.3521,-0.3517,-0.3525,-0.349,-0.3488,-0.3487,-0.3487,-0.3489,-0.349,0,0,0,0,0,0,-0.3745,-0.3739,-0.3675,-0.3699,-0.3689,-0.3644,-0.3631,-0.3623,-0.3612,-0.3567,-0.3559,-0.3586,-0.3525,-0.3519,-0.351,-0.3522,-0.3487,-0.3486,-0.3486,-0.3488,-0.3489,-0.3543,0,0,0,0,0,0,-0.3748,-0.374,-0.3743,-0.3699,-0.3688,-0.3669,-0.3632,-0.3622,-0.3609,-0.3604,-0.3563,-0.3555,-0.3524,-0.3513,-0.3508,-0.3519,-0.3484,-0.3485,-0.3487,-0.3489,-0.354,-0.3546,-0.3552,0,0,0,0,0,-0.3751,-0.3761,-0.3743,-0.3736,-0.3691,-0.367,-0.3664,-0.3628,-0.361,-0.3613,-0.3585,-0.3557,-0.3522,-0.3512,-0.3507,-0.3517,-0.3484,-0.3486,-0.3489,-0.3537,-0.3545,-0.3551,0,0,0,0,0,0,-0.3807,-0.3754,-0.3734,-0.373,-0.3705,-0.366,-0.3662,-0.3637,-0.3617,-0.3613,-0.3569,-0.356,-0.3556,-0.3536,-0.3526,-0.3525,-0.3499,-0.3501,-0.3538,-0.3545,-0.3551,-0.3555,-0.3483,0,0,0,0,0,-0.3819,-0.3806,-0.3761,-0.3761,-0.375,-0.3709,-0.3698,-0.3672,-0.3645,-0.3634,-0.3605,-0.358,-0.3563,-0.3553,-0.3535,-0.3537,-0.3528,-0.3542,-0.3548,-0.3553,-0.3554,-0.3554,-0.356,-0.3498,-0.3498,-0.3498,0,0,-0.3843,-0.3812,-0.3807,-0.3772,-0.3749,-0.3737,-0.37,-0.3689,-0.368,-0.3633,-0.3622,-0.36,-0.3569,-0.3566,-0.3563,-0.3549,-0.3569,-0.3556,-0.356,-0.3558,-0.3557,-0.3563,-0.3568,-0.3499,-0.3499,-0.3499,0,0,-0.388,-0.3856,-0.3854,-0.3833,-0.38,-0.3772,-0.3772,-0.3731,-0.3715,-0.3704,-0.3668,-0.3658,-0.363,-0.3609,-0.3595,-0.3628,-0.3601,-0.3623,-0.3653,-0.3654,-0.3659,-0.3663,-0.3675,-0.3679,-0.3625,-0.3625,-0.3625,0,-0.3914,-0.3895,-0.3856,-0.3847,-0.3833,-0.379,-0.3788,-0.377,-0.3733,-0.3724,-0.3709,-0.3674,-0.365,-0.3642,-0.365,-0.364,-0.3639,-0.3627,-0.3661,-0.3665,-0.3668,-0.3679,-0.3683,-0.3628,-0.3628,-0.3627,-0.3627,0,-0.3938,-0.3926,-0.3928,-0.3893,-0.3879,-0.3874,-0.3836,-0.3827,-0.3803,-0.3778,-0.3768,-0.3738,-0.3714,-0.371,-0.3686,-0.3699,-0.3691,-0.3669,-0.3642,-0.3678,-0.3687,-0.3691,-0.3632,-0.3631,-0.363,-0.3629,0,0,-0.4007,-0.3953,-0.3954,-0.3938,-0.3899,-0.3889,-0.3883,-0.3859,-0.3852,-0.3829,-0.3822,-0.38,-0.378,-0.3765,-0.3739,-0.374,-0.3767,-0.3718,-0.3716,-0.3728,-0.3779,-0.3796,-0.3801,-0.375,-0.3751,-0.3751,-0.3782,0,-0.4038,-0.4023,-0.3989,-0.3985,-0.3973,-0.3933,-0.3928,-0.3904,-0.3881,-0.3867,-0.3842,-0.3827,-0.3802,-0.3792,-0.3791,-0.3764,-0.3777,-0.3762,-0.3744,-0.3744,-0.3752,-0.3805,-0.3822,-0.3852,-0.3785,-0.3786,-0.3786,0,-0.4072,-0.4051,-0.4046,-0.4008,-0.4002,-0.3997,-0.3973,-0.3962,-0.3934,-0.3917,-0.3901,-0.3872,-0.3864,-0.384,-0.3829,-0.3819,-0.381,-0.3796,-0.3797,-0.3793,-0.3767,-0.3803,-0.3861,-0.3866,-0.3792,-0.3791,-0.3791,0,-0.4123,-0.4093,-0.4086,-0.4074,-0.403,-0.4028,-0.401,-0.3982,-0.397,-0.395,-0.3942,-0.3921,-0.3909,-0.3894,-0.3862,-0.3847,-0.3854,-0.3827,-0.384,-0.3841,-0.3842,-0.3843,-0.39,-0.3838,-0.3838,-0.3838,-0.3838,0,-0.416,-0.4158,-0.4109,-0.4104,-0.4102,-0.4063,-0.4062,-0.404,-0.4016,-0.4007,-0.3972,-0.3965,-0.3922,-0.391,-0.3885,-0.388,-0.3875,-0.3861,-0.3854,-0.3864,-0.3866,-0.3857,-0.3854,-0.3839,-0.3839,-0.3839,-0.3838,0,-0.4215,-0.4182,-0.4172,-0.4132,-0.4122,-0.4122,-0.4088,-0.4083,-0.4058,-0.4048,-0.4043,-0.4005,-0.3989,-0.3956,-0.3931,-0.3914,-0.3915,-0.3903,-0.3924,-0.3919,-0.3934,-0.3933,-0.3987,-0.3992,-0.3928,-0.3929,-0.3929,0,-0.4241,-0.4239,-0.4199,-0.4191,-0.4174,-0.4161,-0.4149,-0.4112,-0.4101,-0.4071,-0.407,-0.4051,-0.4035,-0.4012,-0.3982,-0.3964,-0.395,-0.3971,-0.3947,-0.3957,-0.3951,-0.3951,-0.3951,-0.3976,-0.3976,-0.3977,-0.3978,0,-0.429,-0.4274,-0.4258,-0.4237,-0.4223,-0.4205,-0.4184,-0.418,-0.4138,-0.4128,-0.4112,-0.4099,-0.4075,-0.4057,-0.4034,-0.4016,-0.399,-0.3986,-0.3988,-0.3997,-0.4009,-0.4003,-0.3937,-0.3984,-0.3984,-0.3983,-0.3983,-0.3982,-0.4331,-0.4327,-0.4299,-0.4282,-0.4264,-0.4246,-0.4239,-0.4214,-0.42,-0.4176,-0.4156,-0.4142,-0.4116,-0.4083,-0.4067,-0.4056,-0.4043,-0.4046,-0.4046,-0.4047,-0.4051,-0.4012,-0.4052,-0.4051,-0.4051,-0.4051,-0.4051,0,-0.4377,-0.4358,-0.4343,-0.4316,-0.4304,-0.4281,-0.4258,-0.4249,-0.4237,-0.4215,-0.4199,-0.4181,-0.4165,-0.4134,-0.4115,-0.4113,-0.41,-0.4109,-0.4108,-0.4105,-0.4064,-0.4064,-0.4119,-0.4119,-0.4119,-0.4119,-0.4119,-0.4119,-0.44,-0.4393,-0.4374,-0.4358,-0.4338,-0.4324,-0.4313,-0.4296,-0.4279,-0.426,-0.4246,-0.4227,-0.4202,-0.4181,-0.4165,-0.4157,-0.4151,-0.4163,-0.4151,-0.4114,-0.4107,-0.4101,-0.4101,-0.4163,-0.4163,-0.4192,-0.4193,-0.4193]},{"header":{"parameterUnit":"m.s-1","parameterCategory":1,"la1":30.2991,"la2":30.254,"lo1":-89.0895,"lo2":-89.0444,"dy":0.0017,"dx":0.0017,"nx":28,"ny":28,"refTime":"2025-08-21T21:00:00:Z","depth":0,"parameterNumber":3,"parameterNumberName":"V-component_of_WINDS"},"data":[0,0,0,0,0,0,0,0,0,0,0,0,0,0,0,0,0,0,0,0,0,0,0,0,0,0,0,0,0,0,0,0,0,0,0,0,0,0,0,0,0,0,0,0,0,0,0,0,0,0,0,0,0,0,0,0,0,0,0.4796,0.4795,0,0.476,0.476,0.476,0.4706,0.4705,0.4704,0.4703,0.4666,0.4666,0.4666,0,0,0,0,0,0,0,0,0,0,0,0,0,0.4817,0.4817,0.4796,0.4795,0.4795,0.476,0.476,0.476,0.4706,0.4705,0.4704,0.4703,0.4666,0.4666,0.4666,0,0,0,0,0,0,0,0,0,0,0,0,0,0.4797,0.4817,0.4796,0.4764,0.4761,0.4761,0.476,0.4759,0.4706,0.4705,0.4703,0.4702,0.4666,0.4666,0.4666,0.4694,0,0,0.4665,0.4665,0,0,0,0,0,0,0,0,0.4798,0.4796,0.4769,0.4766,0.4763,0.4736,0.4754,0.4737,0.4707,0.4727,0.4703,0.4701,0.469,0.4688,0.4685,0.4692,0.469,0.4665,0.4665,0.4665,0.4665,0,0,0,0,0,0,0,0.48,0.4798,0.4782,0.4769,0.4765,0.4751,0.4747,0.475,0.4717,0.4725,0.4721,0.4718,0.4688,0.4685,0.4683,0.469,0.4665,0.4665,0.4665,0.4665,0.4719,0.472,0,0,0,0,0,0,0.4806,0.4799,0.4783,0.4781,0.4777,0.4752,0.4747,0.4746,0.4717,0.4711,0.4719,0.4715,0.4686,0.4684,0.4682,0.4713,0.4665,0.4665,0.4665,0.4717,0.4719,0.472,0,0,0,0,0,0,0.4807,0.4805,0.4784,0.4789,0.4785,0.4753,0.4752,0.4746,0.4743,0.4712,0.4706,0.4722,0.4685,0.4682,0.4691,0.4711,0.4665,0.4665,0.4715,0.4718,0.472,0.4775,0,0,0,0,0,0,0.4807,0.4805,0.4816,0.4789,0.4785,0.4795,0.4754,0.4746,0.4743,0.4738,0.4713,0.4708,0.4683,0.4692,0.4691,0.471,0.4665,0.4713,0.4716,0.4719,0.4771,0.4779,0.4786,0,0,0,0,0,0.4808,0.4833,0.4817,0.4815,0.4797,0.4796,0.4793,0.4765,0.4744,0.4754,0.4735,0.4709,0.4709,0.4693,0.4692,0.4711,0.4712,0.4715,0.4719,0.4768,0.4778,0.4785,0,0,0,0,0,0,0.4862,0.4828,0.481,0.4827,0.4815,0.4787,0.4799,0.4776,0.4769,0.4764,0.4729,0.4724,0.4738,0.4725,0.4708,0.4737,0.4706,0.471,0.4744,0.4753,0.476,0.4763,0.4665,0,0,0,0,0,0.4875,0.4877,0.4848,0.4865,0.486,0.4831,0.4829,0.4808,0.4794,0.4788,0.4769,0.4757,0.4754,0.4753,0.4748,0.4769,0.4763,0.4782,0.4789,0.4795,0.4798,0.4809,0.4817,0.4732,0.4732,0.4731,0,0,0.4904,0.4886,0.4889,0.4876,0.4864,0.4866,0.4826,0.4831,0.4832,0.4789,0.4796,0.4782,0.4766,0.4781,0.4787,0.4771,0.482,0.4799,0.4804,0.4804,0.4813,0.4821,0.4828,0.4734,0.4733,0.4733,0,0,0.4957,0.4943,0.4956,0.4945,0.4928,0.4908,0.4912,0.4887,0.4876,0.4884,0.4851,0.4852,0.4848,0.4838,0.4832,0.4882,0.4857,0.4881,0.4918,0.4929,0.4936,0.4941,0.4959,0.4966,0.4885,0.4885,0.4885,0,0.4994,0.4997,0.4966,0.4972,0.4968,0.4929,0.4942,0.4933,0.4915,0.4913,0.4895,0.4889,0.4875,0.4888,0.49,0.4897,0.4899,0.4884,0.4937,0.4943,0.4947,0.4964,0.4971,0.4888,0.4887,0.4887,0.4887,0,0.5044,0.5046,0.5059,0.5043,0.5039,0.5049,0.502,0.502,0.5,0.4983,0.4991,0.4972,0.4964,0.4965,0.4945,0.4976,0.4966,0.4944,0.4912,0.4959,0.4975,0.4981,0.4892,0.4891,0.489,0.4889,0,0,0.5129,0.5096,0.5102,0.5094,0.5072,0.5073,0.5082,0.5074,0.5075,0.5064,0.507,0.5068,0.5047,0.504,0.5019,0.5028,0.5069,0.5004,0.5003,0.5017,0.5102,0.5119,0.5127,0.5053,0.5054,0.5055,0.5103,0,0.5178,0.519,0.5163,0.5182,0.5184,0.5147,0.5154,0.5142,0.5126,0.5125,0.5107,0.5106,0.5078,0.5074,0.5082,0.5063,0.5086,0.5059,0.5058,0.5059,0.5064,0.5135,0.5153,0.52,0.5109,0.511,0.5111,0,0.5236,0.5229,0.5248,0.5225,0.5225,0.5232,0.5223,0.5223,0.5208,0.5195,0.5189,0.5164,0.517,0.514,0.5149,0.5131,0.5129,0.512,0.5121,0.512,0.5088,0.5136,0.5214,0.5221,0.512,0.5119,0.5118,0,0.5297,0.5292,0.5303,0.5297,0.5271,0.5277,0.5266,0.525,0.5247,0.5239,0.5237,0.523,0.5226,0.5221,0.5195,0.5176,0.5207,0.5175,0.5197,0.5198,0.5205,0.5205,0.5284,0.5204,0.5204,0.5204,0.5204,0,0.5354,0.5368,0.533,0.5337,0.535,0.5319,0.5334,0.532,0.5306,0.5309,0.5277,0.5281,0.5246,0.5246,0.5226,0.5236,0.5234,0.5225,0.5219,0.5228,0.5229,0.5226,0.5222,0.5205,0.5205,0.5205,0.5204,0,0.5425,0.54,0.5409,0.5384,0.5378,0.539,0.5368,0.5373,0.5355,0.536,0.5359,0.5331,0.5329,0.5303,0.5295,0.5282,0.53,0.5289,0.5306,0.5302,0.5326,0.5324,0.5406,0.5415,0.5329,0.533,0.5331,0,0.5463,0.5473,0.5449,0.5449,0.544,0.544,0.5437,0.5407,0.5406,0.539,0.5397,0.5393,0.5388,0.5388,0.5366,0.5361,0.5349,0.5378,0.5347,0.5356,0.5349,0.5349,0.535,0.5384,0.5385,0.5386,0.5387,0,0.5534,0.5522,0.5519,0.5512,0.5509,0.5502,0.5493,0.5495,0.5462,0.5462,0.546,0.5457,0.545,0.5446,0.5437,0.5425,0.5401,0.5397,0.5401,0.541,0.542,0.5416,0.5323,0.5395,0.5394,0.5393,0.5393,0.5393,0.559,0.5597,0.5581,0.5579,0.5569,0.5562,0.5566,0.5548,0.5546,0.5538,0.5521,0.5522,0.5507,0.5492,0.5483,0.5484,0.5469,0.5476,0.5478,0.548,0.5485,0.542,0.5482,0.5482,0.5481,0.5481,0.5481,0,0.5659,0.5648,0.5646,0.5635,0.5634,0.5611,0.56,0.56,0.5602,0.559,0.5586,0.5584,0.5581,0.556,0.5554,0.5558,0.5547,0.5558,0.5557,0.5555,0.5498,0.5495,0.5567,0.5567,0.5567,0.5567,0.5567,0.5567,0.5695,0.5706,0.5692,0.5697,0.5685,0.5686,0.5682,0.5675,0.5666,0.5666,0.5663,0.5649,0.5633,0.5626,0.5622,0.5616,0.5616,0.563,0.5621,0.5568,0.5559,0.5551,0.5548,0.5631,0.5631,0.5678,0.5678,0.5678]}]]